ITY425 LIRF-LIMJ

Flight info

Callsign ITY425
Flight time 0h 58m
Altitude 28000
Route GILIO DCT ELB DCT BETEN IDONA
Aircraft A320/M-SDE3FGHIRWY/LB1

Departure

Time 2026-04-12 10:12
Airport Rome–Fiumicino Leonardo da Vinci International Airport (LIRF)

Arrival

Time 2026-04-12 11:11
Airport Genoa Cristoforo Colombo Airport (LIMJ)
Time Latitude Longitude Altitude Speed Heading
2026-04-12 09:48 41.79654 12.25596 15 ft 0 kts 295°
2026-04-12 10:02 41.79653 12.25599 15 ft 3 kts 294°
2026-04-12 10:02 41.79645 12.25624 15 ft 3 kts 295°
2026-04-12 10:02 41.79633 12.25646 19 ft 3 kts 342°
2026-04-12 10:02 41.79616 12.25648 17 ft 0 kts 21°
2026-04-12 10:04 41.79622 12.25652 16 ft 5 kts 25°
2026-04-12 10:05 41.79654 12.25671 16 ft 5 kts 24°
2026-04-12 10:05 41.79679 12.25687 15 ft 3 kts 25°
2026-04-12 10:05 41.79716 12.25710 15 ft 9 kts 25°
2026-04-12 10:05 41.79795 12.25760 16 ft 15 kts 25°
2026-04-12 10:06 41.79878 12.25824 16 ft 6 kts 32°
2026-04-12 10:06 41.79879 12.25825 16 ft 0 kts 32°
2026-04-12 10:07 41.79882 12.25828 16 ft 4 kts 32°
2026-04-12 10:07 41.79924 12.25855 15 ft 7 kts 24°
2026-04-12 10:07 41.79963 12.25879 15 ft 7 kts 24°
2026-04-12 10:08 41.80039 12.25925 16 ft 17 kts 25°
2026-04-12 10:08 41.80170 12.26006 16 ft 22 kts 25°
2026-04-12 10:08 41.80317 12.26098 15 ft 24 kts 25°
2026-04-12 10:08 41.80458 12.26176 16 ft 21 kts 13°
2026-04-12 10:09 41.80550 12.26316 17 ft 22 kts 69°
2026-04-12 10:09 41.80605 12.26513 17 ft 23 kts 70°
2026-04-12 10:09 41.80660 12.26720 15 ft 20 kts 69°
2026-04-12 10:09 41.80708 12.26888 15 ft 20 kts 69°
2026-04-12 10:10 41.80750 12.27017 15 ft 14 kts 51°
2026-04-12 10:10 41.80840 12.27028 16 ft 13 kts 338°
2026-04-12 10:10 41.80921 12.26987 15 ft 13 kts 338°
2026-04-12 10:10 41.80935 12.26837 13 ft 21 kts 250°
2026-04-12 10:11 41.80930 12.26818 15 ft 0 kts 250°
2026-04-12 10:11 41.80915 12.26765 14 ft 33 kts 249°
2026-04-12 10:11 41.80738 12.26129 19 ft 107 kts 250°
2026-04-12 10:12 41.80412 12.24952 17 ft 162 kts 249°
2026-04-12 10:12 41.79985 12.23433 439 ft 172 kts 250°
2026-04-12 10:12 41.79652 12.21914 1190 ft 170 kts 245°
2026-04-12 10:12 41.79353 12.20281 1614 ft 195 kts 261°
2026-04-12 10:13 41.79271 12.18360 2045 ft 218 kts 262°
2026-04-12 10:13 41.79194 12.16210 2389 ft 243 kts 263°
2026-04-12 10:13 41.79118 12.13821 2859 ft 267 kts 263°
2026-04-12 10:13 41.79048 12.11287 3686 ft 274 kts 263°
2026-04-12 10:14 41.78991 12.08725 4678 ft 276 kts 264°
2026-04-12 10:14 41.78978 12.06164 5616 ft 279 kts 266°
2026-04-12 10:14 41.78986 12.03545 6526 ft 283 kts 267°
2026-04-12 10:14 41.78999 12.00885 7357 ft 287 kts 267°
2026-04-12 10:15 41.79007 11.98186 8199 ft 291 kts 267°
2026-04-12 10:15 41.79009 11.95445 9068 ft 294 kts 266°
2026-04-12 10:15 41.79007 11.92693 9916 ft 298 kts 266°
2026-04-12 10:15 41.79001 11.89851 10423 ft 314 kts 267°
2026-04-12 10:16 41.79052 11.86809 10674 ft 338 kts 274°
2026-04-12 10:16 41.79542 11.83693 11227 ft 351 kts 286°
2026-04-12 10:16 41.80534 11.80674 11955 ft 357 kts 298°
2026-04-12 10:16 41.81812 11.77798 12718 ft 360 kts 299°
2026-04-12 10:17 41.82686 11.75835 13252 ft 362 kts 299°
2026-04-12 10:17 41.83964 11.72955 13978 ft 365 kts 299°
2026-04-12 10:17 41.85269 11.70012 14638 ft 368 kts 299°
2026-04-12 10:17 41.86515 11.67189 15264 ft 371 kts 299°
2026-04-12 10:18 41.87838 11.64189 15899 ft 375 kts 299°
2026-04-12 10:18 41.89160 11.61195 16542 ft 378 kts 299°
2026-04-12 10:18 41.90702 11.58305 17179 ft 384 kts 309°
2026-04-12 10:18 41.92544 11.55672 17822 ft 387 kts 312°
2026-04-12 10:19 41.94412 11.53040 18433 ft 390 kts 312°
2026-04-12 10:19 41.96281 11.50404 18991 ft 393 kts 312°
2026-04-12 10:19 41.98173 11.47730 19569 ft 396 kts 312°
2026-04-12 10:19 42.00077 11.45033 20148 ft 398 kts 311°
2026-04-12 10:20 42.01986 11.42317 20727 ft 400 kts 311°
2026-04-12 10:20 42.03905 11.39581 21303 ft 403 kts 311°
2026-04-12 10:20 42.05839 11.36829 21875 ft 406 kts 311°
2026-04-12 10:20 42.07794 11.34046 22413 ft 409 kts 311°
2026-04-12 10:21 42.09755 11.31252 22966 ft 411 kts 311°
2026-04-12 10:21 42.11712 11.28466 23472 ft 415 kts 311°
2026-04-12 10:21 42.13704 11.25625 23877 ft 418 kts 311°
2026-04-12 10:21 42.15709 11.22763 24315 ft 421 kts 311°
2026-04-12 10:22 42.17730 11.19875 24737 ft 423 kts 311°
2026-04-12 10:22 42.19751 11.16977 25148 ft 425 kts 311°
2026-04-12 10:22 42.21779 11.14060 25554 ft 427 kts 311°
2026-04-12 10:22 42.23816 11.11128 25950 ft 429 kts 311°
2026-04-12 10:23 42.25859 11.08194 26358 ft 431 kts 311°
2026-04-12 10:23 42.27923 11.05230 26737 ft 433 kts 311°
2026-04-12 10:23 42.29971 11.02286 27112 ft 435 kts 311°
2026-04-12 10:23 42.32042 10.99307 27490 ft 437 kts 311°
2026-04-12 10:24 42.34128 10.96302 27833 ft 439 kts 311°
2026-04-12 10:24 42.36213 10.93289 27933 ft 434 kts 310°
2026-04-12 10:24 42.38248 10.90348 27948 ft 424 kts 310°
2026-04-12 10:24 42.40256 10.87446 27947 ft 421 kts 310°
2026-04-12 10:25 42.42260 10.84545 27945 ft 420 kts 310°
2026-04-12 10:25 42.44227 10.81695 27945 ft 419 kts 310°
2026-04-12 10:25 42.46225 10.78797 27945 ft 419 kts 310°
2026-04-12 10:25 42.48221 10.75896 27945 ft 419 kts 310°
2026-04-12 10:26 42.50209 10.73003 27948 ft 419 kts 310°
2026-04-12 10:26 42.52198 10.70111 27952 ft 419 kts 310°
2026-04-12 10:26 42.54194 10.67211 27945 ft 419 kts 310°
2026-04-12 10:26 42.56186 10.64315 27944 ft 418 kts 310°
2026-04-12 10:27 42.58142 10.61459 27943 ft 418 kts 310°
2026-04-12 10:27 42.60123 10.58562 27942 ft 418 kts 310°
2026-04-12 10:27 42.62109 10.55653 27957 ft 418 kts 310°
2026-04-12 10:27 42.64098 10.52740 27946 ft 419 kts 310°
2026-04-12 10:28 42.66079 10.49834 27937 ft 419 kts 310°
2026-04-12 10:28 42.68070 10.46912 27934 ft 420 kts 310°
2026-04-12 10:28 42.70057 10.43998 27929 ft 420 kts 310°
2026-04-12 10:28 42.72075 10.41135 27935 ft 421 kts 315°
2026-04-12 10:29 42.74361 10.38683 27936 ft 424 kts 324°
2026-04-12 10:29 42.76923 10.36672 27940 ft 425 kts 329°
2026-04-12 10:29 42.79523 10.34730 27934 ft 425 kts 329°
2026-04-12 10:29 42.82113 10.32788 27929 ft 425 kts 329°
2026-04-12 10:30 42.84699 10.30839 27926 ft 425 kts 328°
2026-04-12 10:30 42.87290 10.28880 27926 ft 425 kts 328°
2026-04-12 10:30 42.89887 10.26913 27924 ft 426 kts 328°
2026-04-12 10:30 42.92486 10.24942 27925 ft 426 kts 328°
2026-04-12 10:31 42.95078 10.22977 27927 ft 426 kts 328°
2026-04-12 10:31 42.97677 10.21007 27932 ft 426 kts 328°
2026-04-12 10:31 43.00235 10.19065 27946 ft 426 kts 328°
2026-04-12 10:31 43.02828 10.17095 27942 ft 426 kts 328°
2026-04-12 10:32 43.05427 10.15119 27941 ft 426 kts 328°
2026-04-12 10:32 43.08012 10.13152 27936 ft 426 kts 328°
2026-04-12 10:32 43.10601 10.11178 27934 ft 426 kts 328°
2026-04-12 10:32 43.13193 10.09204 27780 ft 424 kts 328°
2026-04-12 10:33 43.15774 10.07238 27521 ft 421 kts 328°
2026-04-12 10:33 43.18332 10.05285 27254 ft 420 kts 328°
2026-04-12 10:33 43.20856 10.03357 27002 ft 419 kts 328°
2026-04-12 10:33 43.23401 10.01413 26747 ft 418 kts 328°
2026-04-12 10:34 43.25946 9.99464 26494 ft 416 kts 328°
2026-04-12 10:34 43.28469 9.97530 26235 ft 415 kts 328°
2026-04-12 10:34 43.30999 9.95589 25995 ft 414 kts 328°
2026-04-12 10:34 43.33511 9.93660 25747 ft 413 kts 328°
2026-04-12 10:35 43.36022 9.91730 25508 ft 412 kts 329°
2026-04-12 10:35 43.38496 9.89831 25267 ft 410 kts 329°
2026-04-12 10:35 43.40988 9.87918 25032 ft 409 kts 329°
2026-04-12 10:35 43.43477 9.86003 24791 ft 407 kts 329°
2026-04-12 10:36 43.45938 9.84101 24548 ft 406 kts 329°
2026-04-12 10:36 43.48389 9.82201 24230 ft 402 kts 329°
2026-04-12 10:36 43.50819 9.80313 23757 ft 400 kts 329°
2026-04-12 10:36 43.53239 9.78431 23226 ft 398 kts 329°
2026-04-12 10:37 43.55621 9.76580 22764 ft 395 kts 329°
2026-04-12 10:37 43.58005 9.74731 22305 ft 391 kts 329°
2026-04-12 10:37 43.60379 9.72894 21842 ft 388 kts 329°
2026-04-12 10:37 43.62729 9.71079 21381 ft 385 kts 329°
2026-04-12 10:38 43.65062 9.69272 20908 ft 383 kts 329°
2026-04-12 10:38 43.67386 9.67472 20443 ft 381 kts 329°
2026-04-12 10:38 43.69667 9.65697 19977 ft 379 kts 329°
2026-04-12 10:38 43.71971 9.63899 19505 ft 378 kts 329°
2026-04-12 10:39 43.74250 9.62116 19047 ft 377 kts 328°
2026-04-12 10:39 43.76530 9.60330 18582 ft 376 kts 328°
2026-04-12 10:39 43.78806 9.58547 18106 ft 375 kts 328°
2026-04-12 10:39 43.81067 9.56776 17615 ft 373 kts 329°
2026-04-12 10:40 43.83321 9.55011 17161 ft 370 kts 329°
2026-04-12 10:40 43.85558 9.53261 16734 ft 368 kts 329°
2026-04-12 10:40 43.87783 9.51517 16303 ft 366 kts 329°
2026-04-12 10:40 43.90004 9.49775 15847 ft 364 kts 329°
2026-04-12 10:41 43.92180 9.48068 15418 ft 363 kts 329°
2026-04-12 10:41 43.94376 9.46340 14985 ft 361 kts 329°
2026-04-12 10:41 43.96568 9.44612 14545 ft 360 kts 330°
2026-04-12 10:41 43.98659 9.42727 14107 ft 358 kts 320°
2026-04-12 10:42 44.00483 9.40362 13663 ft 357 kts 314°
2026-04-12 10:42 44.02237 9.37927 13199 ft 355 kts 314°
2026-04-12 10:42 44.03959 9.35529 12756 ft 352 kts 314°
2026-04-12 10:42 44.05687 9.33126 12312 ft 350 kts 314°
2026-04-12 10:43 44.09111 9.28365 11419 ft 345 kts 314°
2026-04-12 10:43 44.10784 9.26036 10978 ft 342 kts 314°
2026-04-12 10:43 44.12463 9.23698 10531 ft 340 kts 314°
2026-04-12 10:44 44.14132 9.21379 10171 ft 335 kts 314°
2026-04-12 10:44 44.15753 9.19128 10048 ft 322 kts 314°
2026-04-12 10:44 44.17452 9.17175 9924 ft 311 kts 332°
2026-04-12 10:44 44.19477 9.16304 9626 ft 303 kts 357°
2026-04-12 10:45 44.21519 9.16690 9221 ft 299 kts 23°
2026-04-12 10:45 44.23291 9.18147 8791 ft 295 kts 38°
2026-04-12 10:45 44.24995 9.19757 8333 ft 296 kts 34°
2026-04-12 10:45 44.26805 9.21254 7532 ft 308 kts 30°
2026-04-12 10:46 44.28760 9.22626 6712 ft 320 kts 25°
2026-04-12 10:46 44.30926 9.23310 6263 ft 320 kts 357°
2026-04-12 10:46 44.32980 9.22411 6141 ft 305 kts 325°
2026-04-12 10:46 44.34329 9.20289 6063 ft 287 kts 295°
2026-04-12 10:47 44.34940 9.17704 5890 ft 274 kts 280°
2026-04-12 10:47 44.35270 9.15074 5263 ft 281 kts 277°
2026-04-12 10:47 44.35576 9.12318 4534 ft 291 kts 279°
2026-04-12 10:47 44.35949 9.09577 4102 ft 278 kts 281°
2026-04-12 10:48 44.36371 9.07060 3995 ft 253 kts 284°
2026-04-12 10:48 44.36802 9.04818 4000 ft 225 kts 285°
2026-04-12 10:48 44.37216 9.02810 3997 ft 209 kts 286°
2026-04-12 10:48 44.37615 9.00933 4039 ft 192 kts 287°
2026-04-12 10:49 44.37982 8.99225 4011 ft 175 kts 287°
2026-04-12 10:49 44.38319 8.97664 3993 ft 162 kts 287°
2026-04-12 10:49 44.38640 8.96176 4027 ft 159 kts 287°
2026-04-12 10:49 44.38959 8.94697 4012 ft 158 kts 286°
2026-04-12 10:50 44.39262 8.93211 4013 ft 159 kts 284°
2026-04-12 10:50 44.39548 8.91713 4010 ft 159 kts 285°
2026-04-12 10:50 44.39863 8.90226 4005 ft 159 kts 287°
2026-04-12 10:50 44.40194 8.88737 3989 ft 166 kts 287°
2026-04-12 10:51 44.40580 8.87029 4001 ft 198 kts 287°
2026-04-12 10:51 44.41002 8.85175 4002 ft 203 kts 288°
2026-04-12 10:51 44.41431 8.83294 4002 ft 203 kts 288°
2026-04-12 10:51 44.41860 8.81409 4009 ft 203 kts 288°
2026-04-12 10:52 44.42156 8.79500 4011 ft 203 kts 269°
2026-04-12 10:52 44.41871 8.77581 4005 ft 202 kts 242°
2026-04-12 10:52 44.41032 8.76020 4008 ft 201 kts 218°
2026-04-12 10:52 44.39764 8.75319 4014 ft 198 kts 179°
2026-04-12 10:53 44.38851 8.75498 4011 ft 197 kts 165°
2026-04-12 10:53 44.37534 8.75978 4010 ft 198 kts 166°
2026-04-12 10:53 44.36174 8.76293 4009 ft 198 kts 172°
2026-04-12 10:53 44.34806 8.76506 4005 ft 198 kts 172°
2026-04-12 10:54 44.33433 8.76707 4012 ft 198 kts 173°
2026-04-12 10:54 44.32060 8.76920 4013 ft 198 kts 173°
2026-04-12 10:54 44.30702 8.77126 4012 ft 198 kts 173°
2026-04-12 10:54 44.29330 8.77333 4008 ft 198 kts 173°
2026-04-12 10:55 44.27958 8.77544 3998 ft 198 kts 173°
2026-04-12 10:55 44.26586 8.77748 4005 ft 198 kts 172°
2026-04-12 10:55 44.25216 8.77934 3997 ft 198 kts 173°
2026-04-12 10:55 44.23861 8.78120 3998 ft 197 kts 171°
2026-04-12 10:56 44.22586 8.78736 4001 ft 194 kts 144°
2026-04-12 10:56 44.21706 8.80132 3990 ft 193 kts 114°
2026-04-12 10:56 44.21393 8.81942 3998 ft 193 kts 99°
2026-04-12 10:56 44.21176 8.83799 3996 ft 193 kts 99°
2026-04-12 10:57 44.20961 8.85632 3996 ft 193 kts 99°
2026-04-12 10:57 44.20740 8.87491 3996 ft 194 kts 99°
2026-04-12 10:57 44.20520 8.89340 3991 ft 193 kts 99°
2026-04-12 10:57 44.20527 8.91203 3990 ft 194 kts 75°
2026-04-12 10:58 44.21071 8.92926 3991 ft 195 kts 65°
2026-04-12 10:58 44.21615 8.94649 3984 ft 194 kts 77°
2026-04-12 10:58 44.21626 8.96482 3987 ft 193 kts 104°
2026-04-12 10:58 44.21249 8.98278 3991 ft 193 kts 106°
2026-04-12 10:59 44.20865 9.00080 3984 ft 193 kts 107°
2026-04-12 10:59 44.20483 9.01871 3990 ft 193 kts 106°
2026-04-12 10:59 44.20098 9.03667 3989 ft 193 kts 107°
2026-04-12 10:59 44.19711 9.05462 3988 ft 193 kts 107°
2026-04-12 11:00 44.19330 9.07236 3991 ft 193 kts 107°
2026-04-12 11:00 44.18940 9.09028 3992 ft 193 kts 107°
2026-04-12 11:00 44.18551 9.10815 3993 ft 191 kts 107°
2026-04-12 11:00 44.18301 9.12631 3993 ft 191 kts 94°
2026-04-12 11:01 44.18512 9.14429 3986 ft 193 kts 73°
2026-04-12 11:01 44.19100 9.16127 3991 ft 195 kts 61°
2026-04-12 11:01 44.19897 9.17667 3989 ft 196 kts 54°
2026-04-12 11:01 44.20751 9.19159 3981 ft 196 kts 54°
2026-04-12 11:02 44.21610 9.20641 3982 ft 197 kts 53°
2026-04-12 11:02 44.22630 9.21911 3982 ft 200 kts 30°
2026-04-12 11:02 44.23962 9.22511 3989 ft 203 kts 17°
2026-04-12 11:02 44.25335 9.22989 3991 ft 204 kts 15°
2026-04-12 11:03 44.26699 9.23458 3984 ft 204 kts 15°
2026-04-12 11:03 44.28073 9.23932 3991 ft 203 kts 17°
2026-04-12 11:03 44.29475 9.24197 3991 ft 206 kts 355°
2026-04-12 11:03 44.30826 9.23496 3998 ft 207 kts 322°
2026-04-12 11:04 44.31697 9.21912 3997 ft 209 kts 293°
2026-04-12 11:04 44.32271 9.20072 4003 ft 209 kts 292°
2026-04-12 11:04 44.32857 9.18182 3736 ft 214 kts 292°
2026-04-12 11:04 44.33457 9.16244 3192 ft 220 kts 292°
2026-04-12 11:05 44.34060 9.14301 2779 ft 216 kts 292°
2026-04-12 11:05 44.34646 9.12415 2530 ft 206 kts 292°
2026-04-12 11:05 44.35192 9.10669 2490 ft 185 kts 292°
2026-04-12 11:05 44.35678 9.09120 2491 ft 164 kts 291°
2026-04-12 11:06 44.36108 9.07742 2510 ft 148 kts 294°
2026-04-12 11:06 44.36479 9.06434 2505 ft 143 kts 290°
2026-04-12 11:06 44.36790 9.05119 2509 ft 142 kts 289°
2026-04-12 11:06 44.37094 9.03828 2506 ft 141 kts 289°
2026-04-12 11:07 44.37394 9.02514 2510 ft 141 kts 289°
2026-04-12 11:07 44.37680 9.01196 2507 ft 141 kts 287°
2026-04-12 11:07 44.37926 8.99867 2509 ft 141 kts 285°
2026-04-12 11:07 44.38146 8.98540 2489 ft 143 kts 285°
2026-04-12 11:08 44.38370 8.97199 2358 ft 140 kts 286°
2026-04-12 11:08 44.38622 8.95878 2232 ft 140 kts 287°
2026-04-12 11:08 44.38898 8.94557 1991 ft 141 kts 290°
2026-04-12 11:08 44.39237 8.93284 1717 ft 139 kts 294°
2026-04-12 11:09 44.39580 8.92007 1430 ft 141 kts 292°
2026-04-12 11:09 44.39908 8.90713 1152 ft 141 kts 289°
2026-04-12 11:09 44.40160 8.89388 875 ft 141 kts 285°
2026-04-12 11:09 44.40374 8.88065 624 ft 137 kts 286°
2026-04-12 11:10 44.40608 8.86775 435 ft 137 kts 293°
2026-04-12 11:10 44.40888 8.85489 172 ft 137 kts 292°
2026-04-12 11:10 44.41178 8.84256 50 ft 129 kts 292°
2026-04-12 11:10 44.41377 8.83336 22 ft 50 kts 285°
2026-04-12 11:11 44.41405 8.83192 21 ft 19 kts 289°
2026-04-12 11:11 44.41476 8.83084 21 ft 8 kts 343°
2026-04-12 11:11 44.41530 8.83109 20 ft 9 kts 40°
2026-04-12 11:11 44.41543 8.83192 20 ft 8 kts 102°
2026-04-12 11:12 44.41527 8.83266 22 ft 7 kts 105°
2026-04-12 11:12 44.41510 8.83356 20 ft 11 kts 105°
2026-04-12 11:12 44.41491 8.83453 20 ft 10 kts 105°
2026-04-12 11:12 44.41474 8.83538 20 ft 9 kts 106°
2026-04-12 11:13 44.41459 8.83613 20 ft 8 kts 105°
2026-04-12 11:13 44.41441 8.83711 22 ft 14 kts 105°
2026-04-12 11:13 44.41415 8.83846 20 ft 14 kts 105°
2026-04-12 11:13 44.41388 8.83979 20 ft 14 kts 105°
2026-04-12 11:14 44.41363 8.84107 20 ft 13 kts 105°
2026-04-12 11:14 44.41340 8.84229 21 ft 12 kts 105°
2026-04-12 11:14 44.41319 8.84338 20 ft 11 kts 105°
2026-04-12 11:14 44.41323 8.84430 20 ft 9 kts 56°
2026-04-12 11:15 44.41366 8.84499 20 ft 10 kts 49°
2026-04-12 11:15 44.41413 8.84583 20 ft 12 kts 54°
2026-04-12 11:15 44.41468 8.84687 20 ft 14 kts 53°
2026-04-12 11:15 44.41511 8.84816 20 ft 15 kts 107°
2026-04-12 11:16 44.41492 8.84901 20 ft 8 kts 105°
2026-04-12 11:16 44.41486 8.84932 20 ft 0 kts 104°